DW2770 Weather Reports


time (UTC)temp
C
wind
direction
speed
KPH
gust
KPH
rain 1hr
cm
rain 24hr
cm
rain mn
cm
humidity
%
barometer
mb
20210518212056 15 180 3.2 3.2 0.00 0.00 0.00 76 1017.9
20210518211556 15 180 1.6 4.8 0.00 0.00 0.00 76 1017.8
20210518211102 15 158 3.2 4.8 0.00 0.00 0.00 76 1017.7
20210518210556 16 180 0.0 1.6 0.00 0.00 0.00 76 1017.6
20210518210056 15 180 1.6 1.6 0.00 0.00 0.00 76 1017.8
20210518205556 15 203 0.0 6.4 0.00 0.00 0.00 76 1017.8
20210518205056 15 203 3.2 6.4 0.00 0.00 0.00 76 1017.7
20210518204556 15 180 6.4 6.4 0.00 0.00 0.00 77 1017.8
20210518204056 15 158 3.2 3.2 0.00 0.00 0.00 77 1017.8
20210518203556 15 180 3.2 3.2 0.00 0.00 0.00 77 1017.8
20210518203102 15 180 3.2 3.2 0.00 0.00 0.00 77 1018.0
20210518202556 15 180 3.2 4.8 0.00 0.00 0.00 77 1017.9
20210518202059 15 180 4.8 4.8 0.00 0.00 0.00 76 1017.8
20210518201559 15 180 1.6 3.2 0.00 0.00 0.00 76 1017.9
20210518201056 15 135 0.0 3.2 0.00 0.00 0.00 76 1017.9
20210518200602 15 158 0.0 0.0 0.00 0.00 0.00 76 1017.9
20210518200056 16 135 0.0 0.0 0.00 0.00 0.00 76 1017.8
20210518195559 16 135 0.0 0.0 0.00 0.00 0.00 76 1017.8
20210518195056 16 113 0.0 0.0 0.00 0.00 0.00 76 1017.7
20210518194556 16 135 0.0 0.0 0.00 0.00 0.00 76 1017.6
20210518194059 16 203 1.6 1.6 0.00 0.00 0.00 76 1017.6
20210518193556 16 158 1.6 1.6 0.00 0.00 0.00 76 1017.6
20210518193059 16 158 1.6 4.8 0.00 0.00 0.00 75 1017.5
20210518192556 16 180 4.8 4.8 0.00 0.00 0.00 75 1017.5
20210518192056 16 135 0.0 0.0 0.00 0.00 0.00 75 1017.4
20210518191556 16 158 0.0 1.6 0.00 0.00 0.00 75 1017.4
20210518191059 16 180 1.6 1.6 0.00 0.00 0.00 75 1017.4
20210518190559 16 180 1.6 1.6 0.00 0.00 0.00 74 1017.2
20210518190056 16 180 0.0 1.6 0.00 0.00 0.00 74 1017.1
20210518185556 16 158 0.0 4.8 0.00 0.00 0.00 74 1017.1
20210518185059 16 180 4.8 4.8 0.00 0.00 0.00 74 1017.0
20210518184558 16 180 0.0 1.6 0.00 0.00 0.00 73 1017.1
20210518184056 16 135 0.0 0.0 0.00 0.00 0.00 73 1017.1
20210518183556 17 158 0.0 0.0 0.00 0.00 0.00 73 1017.1
20210518183056 17 180 0.0 0.0 0.00 0.00 0.00 72 1017.1
20210518182556 17 135 0.0 0.0 0.00 0.00 0.00 72 1017.0
20210518182056 17 158 0.0 0.0 0.00 0.00 0.00 73 1017.1
20210518181556 17 180 0.0 0.0 0.00 0.00 0.00 73 1017.2
20210518181059 17 68 0.0 0.0 0.00 0.00 0.00 72 1017.2
20210518180556 17 45 0.0 0.0 0.00 0.00 0.00 72 1017.3
20210518180056 17 45 0.0 3.2 0.00 0.00 0.00 72 1017.3
20210518175556 17 68 1.6 1.6 0.00 0.00 0.00 72 1017.4
20210518175056 17 68 1.6 3.2 0.00 0.00 0.00 71 1017.3
20210518173559 18 45 3.2 3.2 0.00 0.00 0.00 70 1017.5
20210518173055 18 45 3.2 3.2 0.00 0.00 0.00 71 1017.5
20210518172556 18 338 0.0 0.0 0.00 0.00 0.00 71 1017.5
20210518172056 18 270 0.0 1.6 0.00 0.00 0.00 71 1017.3
20210518171602 18 315 1.6 3.2 0.00 0.00 0.00 71 1017.5
20210518171056 18 45 0.0 1.6 0.00 0.00 0.00 71 1017.4
20210518170555 18 68 0.0 1.6 0.00 0.00 0.00 71 1017.4
20210518170057 18 0 0.0 0.0 0.00 0.00 0.00 71 1017.5
20210518165556 18 270 1.6 6.4 0.00 0.00 0.00 71 1017.3
20210518165055 18 68 6.4 6.4 0.00 0.00 0.00 71 1017.5
20210518164555 18 158 1.6 4.8 0.00 0.00 0.00 70 1017.5
20210518164056 18 68 4.8 8.0 0.00 0.00 0.00 70 1017.5
20210518163556 18 68 6.4 6.4 0.00 0.00 0.00 70 1017.5
20210518163055 18 68 6.4 6.4 0.00 0.00 0.00 69 1017.4
20210518162555 18 45 3.2 8.0 0.00 0.00 0.00 69 1017.4
20210518162055 18 68 4.8 6.4 0.00 0.00 0.00 67 1017.5
20210518161555 19 45 6.4 9.7 0.00 0.00 0.00 66 1017.4
20210518161056 20 90 4.8 4.8 0.00 0.00 0.00 65 1017.5
20210518160558 20 23 0.0 1.6 0.00 0.00 0.00 65 1017.4
20210518160055 20 158 1.6 1.6 0.00 0.00 0.00 64 1017.4
20210518155555 20 293 0.0 6.4 0.00 0.00 0.00 65 1017.6
20210518155059 20 203 6.4 6.4 0.00 0.00 0.00 65 1017.6
20210518154556 20 338 0.0 4.8 0.00 0.00 0.00 65 1017.6
20210518154056 20 293 4.8 4.8 0.00 0.00 0.00 65 1017.7
20210518153555 20 248 1.6 1.6 0.00 0.00 0.00 65 1017.8
20210518153059 20 293 1.6 4.8 0.00 0.00 0.00 65 1017.7
20210518152556 20 68 0.0 4.8 0.00 0.00 0.00 64 1017.7
20210518152055 20 180 4.8 4.8 0.00 0.00 0.00 64 1017.6
20210518151556 20 338 3.2 3.2 0.00 0.00 0.00 65 1017.6
20210518151059 20 135 1.6 3.2 0.00 0.00 0.00 65 1017.6
20210518150556 20 315 0.0 0.0 0.00 0.00 0.00 65 1017.7
20210518150055 20 45 0.0 3.2 0.00 0.00 0.00 64 1017.8
20210518145558 20 45 3.2 3.2 0.00 0.00 0.00 64 1018.0
20210518145055 20 270 1.6 3.2 0.00 0.00 0.00 64 1017.8
20210518144555 20 23 3.2 3.2 0.00 0.00 0.00 64 1017.8
20210518144055 20 45 1.6 3.2 0.00 0.00 0.00 62 1017.8
20210518143558 20 293 3.2 6.4 0.00 0.00 0.00 62 1017.7
20210518143055 21 203 1.6 4.8 0.00 0.00 0.00 61 1017.7
20210518142559 21 0 4.8 4.8 0.00 0.00 0.00 60 1017.7
20210518142058 21 315 3.2 3.2 0.00 0.00 0.00 58 1017.6
20210518141559 21 0 1.6 6.4 0.00 0.00 0.00 58 1017.7
20210518141055 21 180 9.7 9.7 0.00 0.00 0.00 57 1017.8
20210518140559 21 203 0.0 6.4 0.00 0.00 0.00 57 1017.9
20210518140056 21 248 1.6 1.6 0.00 0.00 0.00 57 1017.7
20210518135558 21 23 1.6 9.7 0.00 0.00 0.00 57 1017.9
20210518135055 21 45 0.0 3.2 0.00 0.00 0.00 56 1017.8
20210518134556 21 315 3.2 4.8 0.00 0.00 0.00 56 1017.9
20210518134056 21 293 4.8 4.8 0.00 0.00 0.00 55 1018.0
20210518133558 21 23 1.6 1.6 0.00 0.00 0.00 55 1018.1
20210518133056 21 225 0.0 6.4 0.00 0.00 0.00 54 1018.0
20210518132555 21 135 3.2 4.8 0.00 0.00 0.00 55 1018.2
20210518132055 21 203 1.6 11.3 0.00 0.00 0.00 56 1018.3
20210518131555 20 203 11.3 11.3 0.00 0.00 0.00 58 1018.3
20210518131055 20 68 3.2 6.4 0.00 0.00 0.00 58 1018.3
20210518130558 21 68 3.2 3.2 0.00 0.00 0.00 58 1018.3
20210518130056 20 23 1.6 4.8 0.00 0.00 0.00 58 1018.2
20210518125556 20 45 3.2 6.4 0.00 0.00 0.00 59 1018.2
20210518125056 20 45 6.4 8.0 0.00 0.00 0.00 59 1018.3
20210518124556 20 45 8.0 14.5 0.00 0.00 0.00 59 1018.2
20210518124055 20 68 11.3 11.3 0.00 0.00 0.00 57 1018.2
20210518123556 20 68 8.0 9.7 0.00 0.00 0.00 57 1018.0
20210518123056 20 68 9.7 11.3 0.00 0.00 0.00 56 1018.2
20210518122556 20 68 4.8 4.8 0.00 0.00 0.00 55 1018.2
20210518122056 20 158 0.0 9.7 0.00 0.00 0.00 54 1018.1
20210518121556 20 68 8.0 8.0 0.00 0.00 0.00 54 1018.3
20210518121056 20 23 12.9 12.9 0.00 0.00 0.00 54 1018.2
20210518120556 20 68 11.3 11.3 0.00 0.00 0.00 54 1018.1
20210518120056 20 68 3.2 6.4 0.00 0.00 0.00 54 1018.1
20210518115556 20 68 6.4 12.9 0.00 0.00 0.00 53 1018.2
20210518115056 21 45 6.4 9.7 0.00 0.00 0.00 52 1018.0
20210518114555 22 45 9.7 9.7 0.00 0.00 0.00 51 1018.2
20210518114055 21 293 1.6 1.6 0.00 0.00 0.00 48 1018.3
20210518113555 21 225 6.4 8.0 0.00 0.00 0.00 47 1018.2
20210518113056 21 248 6.4 6.4 0.00 0.00 0.00 52 1018.3
20210518112559 21 338 0.0 3.2 0.00 0.00 0.00 54 1018.3
20210518112055 21 23 1.6 4.8 0.00 0.00 0.00 54 1018.4
20210518111555 21 315 4.8 4.8 0.00 0.00 0.00 55 1018.6
20210518111056 21 315 3.2 6.4 0.00 0.00 0.00 55 1018.5
20210518110556 21 315 3.2 4.8 0.00 0.00 0.00 55 1018.7
20210518110059 20 315 4.8 4.8 0.00 0.00 0.00 59 1018.7
20210518105555 20 293 4.8 4.8 0.00 0.00 0.00 62 1018.6
20210518105055 20 270 3.2 3.2 0.00 0.00 0.00 67 1018.7
20210518104555 20 270 3.2 6.4 0.00 0.00 0.00 70 1018.8
20210518104059 20 203 6.4 6.4 0.00 0.00 0.00 70 1018.7
20210518103555 20 338 4.8 4.8 0.00 0.00 0.00 70 1018.8
20210518103055 20 203 3.2 6.4 0.00 0.00 0.00 70 1019.0
20210518102556 20 315 6.4 6.4 0.00 0.00 0.00 70 1019.0
20210518102055 20 293 1.6 3.2 0.00 0.00 0.00 70 1018.7
20210518101555 20 293 1.6 4.8 0.00 0.00 0.00 71 1018.7
20210518101059 20 315 4.8 4.8 0.00 0.00 0.00 72 1019.0
20210518100601 20 293 1.6 4.8 0.00 0.00 0.00 72 1018.8
20210518100055 20 270 4.8 4.8 0.00 0.00 0.00 73 1019.0
20210518095556 19 248 0.0 3.2 0.00 0.00 0.00 73 1018.8
20210518095056 19 315 3.2 4.8 0.00 0.00 0.00 74 1018.8
20210518094555 19 203 4.8 4.8 0.00 0.00 0.00 75 1018.7
20210518094101 18 248 1.6 1.6 0.00 0.00 0.00 75 1018.8
20210518093555 18 270 1.6 1.6 0.00 0.00 0.00 76 1018.6
20210518093055 18 180 1.6 3.2 0.00 0.00 0.00 76 1018.7
20210518092555 18 68 3.2 3.2 0.00 0.00 0.00 77 1018.8
20210518092056 18 45 1.6 4.8 0.00 0.00 0.00 78 1018.7
20210518091555 18 203 3.2 4.8 0.00 0.00 0.00 78 1018.7
20210518091056 18 0 0.0 1.6 0.00 0.00 0.00 78 1018.6
20210518090556 18 338 1.6 3.2 0.00 0.00 0.00 79 1018.4
20210518090056 18 248 1.6 1.6 0.00 0.00 0.00 79 1018.4
20210518085555 18 293 0.0 0.0 0.00 0.00 0.00 79 1018.3
20210518085055 18 180 0.0 4.8 0.00 0.00 0.00 79 1018.3
20210518084555 18 203 0.0 1.6 0.00 0.00 0.00 79 1017.9
20210518084056 18 203 1.6 6.4 0.00 0.00 0.00 79 1018.2
20210518083556 18 225 6.4 8.0 0.00 0.00 0.00 79 1017.9
20210518083056 18 293 8.0 8.0 0.00 0.00 0.00 79 1017.9
20210518082556 18 225 1.6 4.8 0.00 0.00 0.00 79 1017.9
20210518082056 18 180 1.6 6.4 0.00 0.00 0.00 79 1018.0
20210518081555 18 315 4.8 4.8 0.00 0.00 0.00 79 1018.0
20210518081056 18 225 6.4 6.4 0.00 0.00 0.00 79 1018.0
20210518080556 18 270 0.0 4.8 0.00 0.00 0.00 79 1018.1
20210518080055 18 293 3.2 3.2 0.00 0.00 0.00 79 1018.0
20210518075559 18 203 6.4 6.4 0.00 0.00 0.00 79 1018.1
20210518075055 18 180 6.4 6.4 0.00 0.00 0.00 79 1018.0
20210518074559 18 270 0.0 4.8 0.00 0.00 0.00 78 1018.0
20210518074055 18 225 12.9 12.9 0.00 0.00 0.00 78 1018.0
20210518073556 18 248 3.2 6.4 0.00 0.00 0.00 76 1018.0
20210518073059 18 270 1.6 3.2 0.00 0.00 0.00 75 1017.9
20210518072555 19 248 3.2 4.8 0.00 0.00 0.00 74 1017.9
20210518072055 20 225 3.2 8.0 0.00 0.00 0.00 73 1017.7
20210518071555 20 225 8.0 8.0 0.00 0.00 0.00 73 1017.6
20210518071055 20 68 0.0 0.0 0.00 0.00 0.00 72 1017.7
20210518070558 20 270 0.0 1.6 0.00 0.00 0.00 72 1017.6
20210518070056 20 113 0.0 3.2 0.00 0.00 0.00 72 1017.6
20210518065555 20 293 3.2 3.2 0.00 0.00 0.00 73 1017.4
20210518065055 20 68 0.0 0.0 0.00 0.00 0.00 74 1017.4
20210518064559 20 270 0.0 3.2 0.00 0.00 0.00 74 1017.3
20210518064101 19 270 0.0 4.8 0.00 0.00 0.00 74 1017.1
20210518063555 19 270 0.0 1.6 0.00 0.00 0.00 74 1017.4
20210518063059 19 315 1.6 4.8 0.00 0.00 0.00 75 1017.3
20210518062556 19 180 0.0 1.6 0.00 0.00 0.00 75 1017.2
20210518062058 19 225 1.6 1.6 0.00 0.00 0.00 75 1017.2
20210518061558 18 315 1.6 3.2 0.00 0.00 0.00 75 1017.4
20210518061058 18 293 3.2 3.2 0.00 0.00 0.00 75 1017.3
20210518060601 18 225 0.0 3.2 0.00 0.00 0.00 75 1017.2
20210518060056 18 338 1.6 4.8 0.00 0.00 0.00 75 1017.3
20210518055555 18 248 1.6 6.4 0.00 0.00 0.00 76 1017.5
20210518055055 18 225 6.4 6.4 0.00 0.00 0.00 76 1017.4
20210518054558 18 225 0.0 3.2 0.00 0.00 0.00 76 1017.4
20210518054055 18 203 1.6 8.0 0.00 0.00 0.00 76 1017.4
20210518053558 18 225 8.0 8.0 0.00 0.00 0.00 76 1017.4
20210518053055 18 248 3.2 6.4 0.00 0.00 0.00 76 1017.5
20210518052555 18 180 3.2 3.2 0.00 0.00 0.00 76 1017.4
20210518052056 18 293 1.6 3.2 0.00 0.00 0.00 76 1017.2
20210518051558 18 158 0.0 3.2 0.00 0.00 0.00 75 1017.1
20210518051056 18 180 1.6 1.6 0.00 0.00 0.00 75 1017.2
20210518050558 18 203 1.6 3.2 0.00 0.00 0.00 75 1016.8
20210518050056 18 203 3.2 11.3 0.00 0.00 0.00 74 1016.9
20210518045558 18 225 4.8 6.4 0.00 0.00 0.00 72 1017.0
20210518045055 18 158 3.2 3.2 0.00 0.00 0.00 70 1016.9
20210518044558 18 203 1.6 3.2 0.00 0.00 0.00 68 1017.0
20210518044055 17 225 6.4 6.4 0.00 0.00 0.00 66 1016.9
20210518043555 17 225 4.8 4.8 0.00 0.00 0.00 63 1016.6
20210518043056 17 293 0.0 3.2 0.00 0.00 0.00 61 1016.7
20210518042558 17 270 1.6 3.2 0.00 0.00 0.00 60 1016.4
20210518042056 17 293 3.2 6.4 0.00 0.00 0.00 59 1016.4
20210518041556 17 203 6.4 6.4 0.00 0.00 0.00 58 1016.3
20210518041059 17 180 3.2 3.2 0.00 0.00 0.00 57 1016.2
20210518040555 17 180 3.2 3.2 0.00 0.00 0.00 57 1016.2
20210518040058 17 180 3.2 3.2 0.00 0.00 0.00 58 1016.1
20210518035555 17 68 0.0 0.0 0.00 0.00 0.00 59 1016.2
20210518035059 17 158 0.0 1.6 0.00 0.00 0.00 59 1016.1
20210518034559 17 113 0.0 3.2 0.00 0.00 0.00 59 1016.0
20210518034055 17 135 0.0 6.4 0.00 0.00 0.00 59 1015.9
20210518033556 17 135 1.6 3.2 0.00 0.00 0.00 59 1015.9
20210518033058 17 158 3.2 4.8 0.00 0.00 0.00 60 1015.8
20210518032556 17 180 0.0 0.0 0.00 0.00 0.00 61 1015.6
20210518032056 17 158 0.0 3.2 0.00 0.00 0.00 61 1015.9
20210518031558 17 135 0.0 8.0 0.00 0.00 0.00 60 1015.8
20210518031056 17 180 8.0 8.0 0.00 0.00 0.00 60 1015.9
20210518030555 17 180 3.2 3.2 0.00 0.00 0.00 59 1015.9
20210518030055 17 113 0.0 6.4 0.00 0.00 0.00 60 1015.7
20210518025555 17 180 3.2 3.2 0.00 0.00 0.00 61 1015.7
20210518025058 17 180 3.2 3.2 0.00 0.00 0.00 61 1015.8
20210518024556 17 203 3.2 3.2 0.00 0.00 0.00 62 1015.9
20210518024059 17 203 0.0 1.6 0.00 0.00 0.00 62 1015.8
20210518023559 17 180 1.6 1.6 0.00 0.00 0.00 61 1015.7
20210518023056 17 180 1.6 1.6 0.00 0.00 0.00 61 1015.6
20210518022555 17 180 0.0 6.4 0.00 0.00 0.00 61 1015.7
20210518022058 17 180 6.4 6.4 0.00 0.00 0.00 61 1015.6
20210518021555 17 158 3.2 4.8 0.00 0.00 0.00 61 1015.7
20210518021059 17 180 3.2 3.2 0.00 0.00 0.00 62 1015.6
20210518020555 17 135 3.2 4.8 0.00 0.00 0.00 63 1015.5
20210518020056 17 180 4.8 6.4 0.00 0.00 0.00 64 1015.5
20210518015555 17 180 6.4 6.4 0.00 0.00 0.00 65 1015.4
20210518015058 17 203 1.6 3.2 0.00 0.00 0.00 68 1015.3
20210518014556 17 158 3.2 3.2 0.00 0.00 0.00 68 1015.3
20210518014056 17 45 0.0 0.0 0.00 0.00 0.00 68 1015.3
20210518013556 17 113 0.0 3.2 0.00 0.00 0.00 68 1015.5
20210518013058 17 180 3.2 3.2 0.00 0.00 0.00 69 1015.4
20210518012555 17 225 3.2 3.2 0.00 0.00 0.00 71 1015.2
20210518012055 17 203 1.6 1.6 0.00 0.00 0.00 71 1015.2
20210518011558 17 180 1.6 4.8 0.00 0.00 0.00 72 1015.3
20210518011055 17 180 4.8 4.8 0.00 0.00 0.00 72 1015.2
20210518010555 17 158 0.0 0.0 0.00 0.00 0.00 74 1015.3
20210518010059 17 180 0.0 3.2 0.00 0.00 0.00 74 1015.2
20210518005555 17 180 3.2 3.2 0.00 0.00 0.00 74 1015.3
20210518005058 17 203 0.0 0.0 0.00 0.00 0.00 74 1015.3
20210518004555 17 225 0.0 0.0 0.00 0.00 0.00 74 1015.3
20210518004055 17 135 0.0 0.0 0.00 0.00 0.00 74 1015.2
20210518003555 17 180 0.0 0.0 0.00 0.00 0.00 74 1015.2
20210518003055 17 180 0.0 0.0 0.00 0.00 0.00 74 1015.4
20210518002558 17 180 0.0 1.6 0.00 0.00 0.00 74 1015.4
20210518002055 17 180 1.6 1.6 0.00 0.00 0.00 74 1015.5
20210518001558 17 180 0.0 1.6 0.00 0.00 0.00 75 1015.5
20210518001058 17 180 1.6 1.6 0.00 0.00 0.00 75 1015.5
20210518000555 17 180 0.0 1.6 0.00 0.00 0.00 75 1015.7
20210518000101 17 180 1.6 1.6 0.00 0.00 0.00 75 1015.5
20210517235555 17 180 0.0 0.0 0.00 0.00 0.00 75 1015.7
20210517235055 18 180 0.0 3.2 0.00 0.00 0.00 75 1015.6
20210517234555 18 180 3.2 3.2 0.00 0.00 0.00 75 1015.7
20210517234055 18 180 1.6 1.6 0.00 0.00 0.00 74 1015.6
20210517233556 18 203 0.0 1.6 0.00 0.00 0.00 74 1015.6
20210517233055 18 203 1.6 1.6 0.00 0.00 0.00 74 1015.5
20210517232555 18 203 1.6 3.2 0.00 0.00 0.00 74 1015.4
20210517232101 18 203 1.6 4.8 0.00 0.00 0.00 74 1015.4
20210517231555 18 180 4.8 4.8 0.00 0.00 0.00 74 1015.6
20210517231055 18 203 3.2 3.2 0.00 0.00 0.00 74 1015.7
20210517230555 18 203 3.2 4.8 0.00 0.00 0.00 72 1015.7
20210517230058 18 225 3.2 3.2 0.00 0.00 0.00 70 1015.5
20210517225555 18 180 3.2 3.2 0.00 0.00 0.00 69 1015.6
20210517225055 18 225 3.2 3.2 0.00 0.00 0.00 69 1015.5
20210517224555 18 180 3.2 3.2 0.00 0.00 0.00 70 1015.4
20210517224055 18 180 0.0 0.0 0.00 0.00 0.00 70 1015.4
20210517223555 18 203 0.0 0.0 0.00 0.00 0.00 70 1015.4
20210517223058 18 113 0.0 4.8 0.00 0.00 0.00 70 1015.4
20210517222558 18 203 4.8 4.8 0.00 0.00 0.00 71 1015.1
20210517222055 18 180 0.0 0.0 0.00 0.00 0.00 74 1015.4
20210517221556 18 180 0.0 3.2 0.00 0.00 0.00 74 1015.3
20210517221055 18 180 0.0 1.6 0.00 0.00 0.00 76 1015.4
20210517220600 18 180 0.0 3.2 0.00 0.00 0.00 76 1015.4
20210517220055 18 203 3.2 3.2 0.00 0.00 0.00 76 1015.4
20210517215555 18 203 3.2 3.2 0.00 0.00 0.00 76 1015.5
20210517215055 18 203 1.6 1.6 0.00 0.00 0.00 76 1015.5
20210517214558 18 180 3.2 3.2 0.00 0.00 0.00 76 1015.5
20210517214055 18 180 0.0 0.0 0.00 0.00 0.00 76 1015.3
20210517213555 18 203 0.0 1.6 0.00 0.00 0.00 76 1015.4
20210517213055 18 180 1.6 3.2 0.00 0.00 0.00 76 1015.3
20210517212558 18 203 3.2 3.2 0.00 0.00 0.00 76 1015.3